Crossville, TN

5:29 PM CDT on March 22, 2017 (GMT -0500)
Crossville Memorial-Whitson

Weather History for KCSV - April, 2013

Change the Weather History Date:

Monday, April 1, 2013

  Actual Average Record
Temperature  
Mean Temperature 46 °F 52 °F  
Max Temperature 58 °F 62 °F 81 °F (2010)
Min Temperature 33 °F 41 °F 22 °F (1987)
Degree Days  
Heating Degree Days 19    
Month to date heating degree days 19  
Since 1 July heating degree days 3930  
Moisture  
Dew Point 38 °F    
Average Humidity 70    
Maximum Humidity 100    
Minimum Humidity 40    
Precipitation  
Precipitation 0.00 in 0.17 in 1.16 in (1970)
Month to date precipitation 0.00 0.17  
Year to date precipitation 15.01 14.37  
Sea Level Pressure  
Sea Level Pressure 29.98 in    
Wind  
Wind Speed 6 mph (WNW)    
Max Wind Speed 18 mph    
Max Gust Speed 25 mph    
Visibility 5 miles    
Events Fog    
T = Trace of Precipitation, MM = Missing Value Source: NWS Daily Summary

Daily Weather History Graph

Daily Weather History Graph

Search for Another Location

Airport or City:

Trip Planner

Search our weather history database for the weather conditions in past years. The results will help you decide how hot, cold, wet, or windy it might be!

Date:

Astronomy

Apr. 01, 2013 Rise Set
Actual Time 6:26 AM CDT 7:02 PM CDT
Civil Twilight 6:00 AM CDT 7:28 PM CDT
Nautical Twilight 5:30 AM CDT 7:58 PM CDT
Astronomical Twilight 4:59 AM CDT 8:29 PM CDT
Moon 12:01 AM CDT (4/1) 10:20 AM CDT (4/1)
Length of Visible Light 13h 27m
Length of Day
12h 36m
Waning Gibbous, 67% of the Moon is Illuminated
Apr 1
Waning Gibbous
Apr 2
Last Quarter
Apr 10
New
Apr 18
First Quarter
Apr 25
Full

Hourly Weather History & Observations

Time (CDT) Temp. Windchill Dew Point Humidity Pressure Visibility Wind Dir Wind Speed Gust Speed Precip Events Conditions
12:51 AM 42.8 °F 41.1 °F 41.0 °F 93% 29.92 in 0.5 mi SW 3.5 mph - N/A Fog Fog
1:06 AM 42.8 °F - 41.0 °F 93% 29.92 in 1.0 mi Calm Calm - N/A   Mist
1:17 AM 41.0 °F - 39.2 °F 93% 29.92 in 2.0 mi Calm Calm - N/A   Scattered Clouds
1:21 AM 41.0 °F - 39.2 °F 93% 29.92 in 1.0 mi Calm Calm - N/A   Mist
1:30 AM 39.2 °F - 39.2 °F 100% 29.92 in 0.8 mi Calm Calm - N/A   Mist
1:51 AM 39.2 °F - 39.2 °F 100% 29.91 in 0.5 mi Calm Calm - N/A Fog Fog
2:08 AM 37.4 °F - 37.4 °F 100% 29.91 in 0.2 mi Calm Calm - N/A Fog Fog
2:15 AM 37.4 °F 34.9 °F 37.4 °F 100% 29.91 in 0.5 mi West 3.5 mph - N/A Fog Fog
2:26 AM 37.4 °F - 37.4 °F 100% 29.91 in 0.8 mi Calm Calm - N/A   Mist
2:34 AM 37.4 °F - 37.4 °F 100% 29.91 in 0.5 mi Calm Calm - N/A Fog Fog
2:43 AM 37.4 °F - 37.4 °F 100% 29.91 in 1.0 mi Calm Calm - N/A   Mist
2:53 AM 37.0 °F - 36.0 °F 96% 29.91 in 1.0 mi Calm Calm - N/A   Mist
3:01 AM 37.4 °F - 35.6 °F 93% 29.91 in 0.5 mi Calm Calm - N/A Fog Fog
3:18 AM 35.6 °F - 35.6 °F 100% 29.91 in 1.0 mi Calm Calm - N/A   Mist
3:35 AM 35.6 °F - 35.6 °F 100% 29.91 in 2.0 mi Calm Calm - N/A   Partly Cloudy
3:43 AM 35.6 °F - 33.8 °F 93% 29.91 in 8.0 mi Calm Calm - N/A   Partly Cloudy
3:53 AM 35.1 °F - 34.0 °F 96% 29.92 in 10.0 mi Calm Calm - N/A   Clear
4:53 AM 35.1 °F - 34.0 °F 96% 29.94 in 10.0 mi Calm Calm - N/A   Clear
5:42 AM 33.8 °F 30.8 °F 33.8 °F 100% 29.94 in 2.0 mi WSW 3.5 mph - N/A   Clear
5:51 AM 35.6 °F 31.7 °F 33.8 °F 93% 29.94 in 10.0 mi West 4.6 mph - N/A   Clear
5:53 AM 36.0 °F 33.3 °F 34.0 °F 93% 29.95 in 10.0 mi West 3.5 mph - N/A   Clear
6:53 AM 37.0 °F - 37.0 °F 100% 29.98 in 4.0 mi Calm Calm - N/A   Overcast
7:41 AM 39.2 °F - 39.2 °F 100% 29.99 in 5.0 mi Calm Calm - N/A   Mostly Cloudy
7:47 AM 41.0 °F - 39.2 °F 93% 30.00 in 2.5 mi Calm Calm - N/A   Mostly Cloudy
7:50 AM 41.0 °F 39.0 °F 39.2 °F 93% 30.00 in 0.8 mi West 3.5 mph - N/A   Mostly Cloudy
7:53 AM 41.0 °F 38.0 °F 39.9 °F 96% 30.00 in 0.2 mi West 4.6 mph - N/A Fog Fog
8:36 AM 44.6 °F - 44.6 °F 100% 30.01 in 0.8 mi Calm Calm - N/A   Mist
8:41 AM 44.6 °F 43.1 °F 44.6 °F 100% 30.01 in 2.0 mi West 3.5 mph - N/A   Overcast
8:49 AM 44.6 °F 41.4 °F 44.6 °F 100% 30.01 in 5.0 mi West 5.8 mph - N/A   Overcast
8:53 AM 45.0 °F 41.8 °F 45.0 °F 100% 30.01 in 6.0 mi West 5.8 mph - N/A   Overcast
9:53 AM 46.9 °F - 45.0 °F 93% 30.03 in 5.0 mi WNW 6.9 mph - N/A   Overcast
10:05 AM 48.2 °F - 44.6 °F 87% 30.03 in 5.0 mi Variable 4.6 mph - N/A   Overcast
10:53 AM 48.0 °F - 44.1 °F 86% 30.05 in 8.0 mi WNW 6.9 mph - N/A   Overcast
11:00 AM 48.2 °F - 44.6 °F 87% 30.05 in 8.0 mi WNW 8.1 mph - N/A   Overcast
11:33 AM 50.0 °F - 42.8 °F 76% 30.06 in 9.0 mi NNW 8.1 mph - N/A   Overcast
11:53 AM 51.1 °F - 42.1 °F 71% 30.05 in 10.0 mi NW 5.8 mph - N/A   Overcast
1:53 PM 55.9 °F - 41.0 °F 57% 30.03 in 10.0 mi Variable 6.9 mph - N/A   Partly Cloudy
2:53 PM 57.0 °F - 37.0 °F 47% 30.02 in 10.0 mi NW 9.2 mph - N/A   Scattered Clouds
3:53 PM 57.0 °F - 34.0 °F 42% 30.02 in 10.0 mi West 17.3 mph 24.2 mph 0.01 in   Clear
4:53 PM 57.0 °F - 33.1 °F 40% 30.03 in 10.0 mi NW 10.4 mph 19.6 mph N/A   Clear
5:53 PM 55.0 °F - 32.0 °F 42% 30.04 in 10.0 mi WNW 10.4 mph - N/A   Clear
6:53 PM 51.1 °F - 30.9 °F 46% 30.06 in 10.0 mi WNW 11.5 mph - N/A   Clear
7:53 PM 48.9 °F - 32.0 °F 52% 30.06 in 10.0 mi WNW 6.9 mph - N/A   Clear
8:53 PM 46.9 °F - 33.1 °F 59% 30.08 in 10.0 mi NNW 5.8 mph - N/A   Clear
9:53 PM 45.0 °F 39.7 °F 32.0 °F 60% 30.10 in 10.0 mi NNW 10.4 mph 17.3 mph N/A   Clear
10:53 PM 42.1 °F 38.4 °F 30.0 °F 62% 30.11 in 10.0 mi NNW 5.8 mph - N/A   Clear
11:53 PM 41.0 °F 36.4 °F 28.0 °F 60% 30.12 in 10.0 mi NNW 6.9 mph - N/A   Clear